Weather History for Luverne, MN

Change the Weather History Date:

Sunday, March 23, 2014

  Actual Average (KFSD) Record (KFSD)
Temperature  
Mean Temperature 22 °F 36 °F  
Max Temperature 33 °F 47 °F 87 °F (1910)
Min Temperature 10 °F 25 °F -13 °F (1899)
Degree Days  
Heating Degree Days 44 29  
Month to date heating degree days 778  
Since 1 July heating degree days 6628  
Cooling Degree Days 0 0  
Month to date cooling degree days 0  
Year to date cooling degree days 0  
Moisture  
Dew Point 12 °F    
Average Humidity 62    
Maximum Humidity 92    
Minimum Humidity 35    
Precipitation  
Precipitation 0.00 in 0.07 in 1.10 in (1987)
Month to date precipitation 1.12  
Year to date precipitation 2.28  
Snow  
Snow 0.00 in 0.20 in 4.40 in (1975)
Month to date snowfall 6.5  
Since 1 July snowfall 38.0  
Snow Depth -    
Sea Level Pressure  
Sea Level Pressure 30.41 in    
Wind  
Wind Speed 1 mph (SW)    
Max Wind Speed 9 mph    
Max Gust Speed -    
Visibility 10 miles    
Events      
T = Trace of Precipitation, MM = Missing Value Source: NWS Daily Summary

Daily Weather History Graph

Daily Weather History Graph

Search for Another Location

Airport:

Trip Planner

Search our weather history database for the weather conditions in past years. The results will help you decide how hot, cold, wet, or windy it might be!

Date:

Astronomy

Mar. 23, 2014 Rise Set
Actual Time 7:22 AM CDT 7:40 PM CDT
Civil Twilight 6:53 AM CDT 8:09 PM CDT
Nautical Twilight 6:20 AM CDT 8:43 PM CDT
Astronomical Twilight 5:45 AM CDT 9:18 PM CDT
Moon 2:07 AM CDT (3/23) 11:56 AM CDT (3/23)
Length of Visible Light 13h 15m
Length of Day
12h 18m
Waning Gibbous, 54% of the Moon is Illuminated
Mar 23
Waning Gibbous
Mar 23
Last Quarter
Mar 30
New
Apr 7
First Quarter
Apr 15
Full

Hourly Weather History & Observations

Time (CDT) Temp. Windchill Dew Point Humidity Pressure Visibility Wind Dir Wind Speed Gust Speed Precip Events Conditions
12:15 AM 19.4 °F - 12.2 °F 74% 30.51 in 10.0 mi Calm Calm - N/A   Clear
12:34 AM 19.4 °F - 12.2 °F 74% 30.51 in 10.0 mi Calm Calm - N/A   Clear
12:55 AM 19.4 °F - 12.2 °F 74% 30.51 in 10.0 mi Calm Calm - N/A   Clear
1:14 AM 19.4 °F - 12.2 °F 74% 30.51 in 10.0 mi Calm Calm - N/A   Clear
1:35 AM 19.4 °F - 12.2 °F 74% 30.51 in 10.0 mi Calm Calm - N/A   Clear
1:55 AM 17.6 °F - 12.2 °F 79% 30.51 in 10.0 mi Calm Calm - N/A   Clear
2:14 AM 17.6 °F - 12.2 °F 79% 30.51 in 10.0 mi Calm Calm - N/A   Clear
2:35 AM 17.6 °F - 12.2 °F 79% 30.51 in 10.0 mi Calm Calm - N/A   Clear
2:54 AM 17.6 °F - 12.2 °F 79% 30.51 in 10.0 mi Calm Calm - N/A   Clear
3:15 AM 17.6 °F - 12.2 °F 79% 30.50 in 10.0 mi Calm Calm - N/A   Clear
3:35 AM 15.8 °F - 10.4 °F 79% 30.50 in 10.0 mi Calm Calm - N/A   Clear
3:54 AM 14.0 °F - 10.4 °F 86% 30.50 in 10.0 mi Calm Calm - N/A   Clear
4:15 AM 15.8 °F - 12.2 °F 86% 30.49 in 10.0 mi Calm Calm - N/A   Clear
4:35 AM 14.0 °F - 10.4 °F 86% 30.50 in 10.0 mi Calm Calm - N/A   Clear
4:54 AM 14.0 °F - 10.4 °F 86% 30.49 in 10.0 mi Calm Calm - N/A   Clear
5:15 AM 14.0 °F - 10.4 °F 86% 30.49 in 10.0 mi Calm Calm - N/A   Clear
5:35 AM 14.0 °F - 10.4 °F 86% 30.50 in 10.0 mi Calm Calm - N/A   Clear
5:54 AM 14.0 °F - 10.4 °F 86% 30.49 in 10.0 mi Calm Calm - N/A   Clear
6:15 AM 14.0 °F - 10.4 °F 86% 30.49 in 10.0 mi Calm Calm - N/A   Clear
6:34 AM 12.2 °F - 8.6 °F 85% 30.49 in 10.0 mi Calm Calm - N/A   Clear
6:55 AM 10.4 °F - 8.6 °F 92% 30.49 in 10.0 mi Calm Calm - N/A   Clear
7:15 AM 12.2 °F - 8.6 °F 85% 30.49 in 10.0 mi Calm Calm - N/A   Clear
7:35 AM 12.2 °F - 8.6 °F 85% 30.49 in 10.0 mi Calm Calm - N/A   Clear
7:55 AM 12.2 °F - 8.6 °F 85% 30.49 in 10.0 mi Calm Calm - N/A   Clear
8:15 AM 14.0 °F - 10.4 °F 86% 30.49 in 10.0 mi Calm Calm - N/A   Clear
8:35 AM 15.8 °F - 12.2 °F 86% 30.49 in 10.0 mi Calm Calm - N/A   Clear
8:54 AM 17.6 °F - 14.0 °F 86% 30.48 in 10.0 mi Calm Calm - N/A   Clear
9:15 AM 19.4 °F - 14.0 °F 80% 30.48 in 10.0 mi Calm Calm - N/A   Clear
9:35 AM 21.2 °F 14.9 °F 14.0 °F 74% 30.48 in 10.0 mi SSW 4.6 mph - N/A   Clear
9:54 AM 23.0 °F 15.8 °F 15.8 °F 74% 30.48 in 10.0 mi SW 5.8 mph - N/A   Clear
10:15 AM 23.0 °F 15.8 °F 12.2 °F 63% 30.48 in 10.0 mi SW 5.8 mph - N/A   Clear
10:35 AM 23.0 °F 17.0 °F 12.2 °F 63% 30.48 in 10.0 mi SW 4.6 mph - N/A   Clear
10:54 AM 24.8 °F 19.1 °F 12.2 °F 59% 30.48 in 10.0 mi SW 4.6 mph - N/A   Clear
11:15 AM 24.8 °F 20.5 °F 10.4 °F 54% 30.47 in 10.0 mi SW 3.5 mph - N/A   Clear
11:35 AM 26.6 °F 21.2 °F 8.6 °F 47% 30.46 in 10.0 mi WSW 4.6 mph - N/A   Clear
11:55 AM 28.4 °F 22.2 °F 8.6 °F 43% 30.46 in 10.0 mi WNW 5.8 mph - N/A   Scattered Clouds
12:14 PM 26.6 °F 18.2 °F 10.4 °F 51% 30.45 in 10.0 mi SW 8.1 mph - N/A   Scattered Clouds
12:35 PM 28.4 °F - 8.6 °F 43% 30.44 in 10.0 mi Calm Calm - N/A   Scattered Clouds
12:54 PM 28.4 °F 21.2 °F 10.4 °F 47% 30.43 in 10.0 mi WNW 6.9 mph - N/A   Mostly Cloudy
1:15 PM 30.2 °F 25.4 °F 8.6 °F 40% 30.42 in 10.0 mi West 4.6 mph - N/A   Mostly Cloudy
1:35 PM 30.2 °F - 8.6 °F 40% 30.41 in 10.0 mi Calm Calm - N/A   Scattered Clouds
1:55 PM 30.2 °F 22.6 °F 10.4 °F 44% 30.40 in 10.0 mi WSW 8.1 mph - N/A   Scattered Clouds
2:15 PM 32.0 °F - 8.6 °F 38% 30.39 in 10.0 mi Calm Calm - N/A   Mostly Cloudy
2:35 PM 32.0 °F - 10.4 °F 41% 30.37 in 10.0 mi Calm Calm - N/A   Mostly Cloudy
2:54 PM 32.0 °F 27.5 °F 8.6 °F 38% 30.36 in 10.0 mi ENE 4.6 mph - N/A   Scattered Clouds
3:15 PM 32.0 °F - 10.4 °F 41% 30.35 in 10.0 mi Calm Calm - N/A   Clear
3:35 PM 32.0 °F - 8.6 °F 38% 30.34 in 10.0 mi Calm Calm - N/A   Scattered Clouds
3:54 PM 32.0 °F 24.8 °F 10.4 °F 41% 30.33 in 10.0 mi SW 8.1 mph - N/A   Mostly Cloudy
4:15 PM 32.0 °F 28.7 °F 10.4 °F 41% 30.32 in 10.0 mi WSW 3.5 mph - N/A   Scattered Clouds
4:35 PM 32.0 °F - 8.6 °F 38% 30.31 in 10.0 mi Calm Calm - N/A   Clear
4:54 PM 32.0 °F - 8.6 °F 38% 30.31 in 10.0 mi Calm Calm - N/A   Scattered Clouds
5:15 PM 32.0 °F - 8.6 °F 38% 30.29 in 10.0 mi Calm Calm - N/A   Clear
5:35 PM 33.8 °F - 8.6 °F 35% 30.29 in 10.0 mi Calm Calm - N/A   Clear
5:54 PM 32.0 °F - 6.8 °F 35% 30.29 in 10.0 mi Calm Calm - N/A   Clear
6:15 PM 32.0 °F - 10.4 °F 41% 30.28 in 10.0 mi Calm Calm - N/A   Clear
6:35 PM 32.0 °F - 8.6 °F 38% 30.28 in 10.0 mi Calm Calm - N/A   Clear
6:54 PM 32.0 °F - 10.4 °F 41% 30.28 in 10.0 mi Calm Calm - N/A   Scattered Clouds
7:15 PM 32.0 °F 26.4 °F 12.2 °F 44% 30.28 in 10.0 mi South 5.8 mph - N/A   Mostly Cloudy
7:34 PM 32.0 °F 27.5 °F 12.2 °F 44% 30.28 in 10.0 mi South 4.6 mph - N/A   Mostly Cloudy
7:55 PM 32.0 °F 26.4 °F 14.0 °F 48% 30.27 in 10.0 mi SW 5.8 mph - N/A   Overcast
8:14 PM 32.0 °F 28.7 °F 17.6 °F 55% 30.28 in 10.0 mi SSW 3.5 mph - N/A   Overcast
8:35 PM 32.0 °F 28.7 °F 17.6 °F 55% 30.28 in 10.0 mi SSW 3.5 mph - N/A   Overcast
8:55 PM 32.0 °F 27.5 °F 14.0 °F 48% 30.29 in 10.0 mi SSW 4.6 mph - N/A   Overcast
9:14 PM 32.0 °F 28.7 °F 14.0 °F 48% 30.29 in 10.0 mi West 3.5 mph - N/A   Overcast
9:35 PM 32.0 °F 26.4 °F 15.8 °F 51% 30.31 in 10.0 mi South 5.8 mph - N/A   Overcast
9:55 PM 32.0 °F 24.2 °F 17.6 °F 55% 30.31 in 10.0 mi SSW 9.2 mph - N/A   Overcast
10:15 PM 32.0 °F 25.6 °F 19.4 °F 60% 30.31 in 10.0 mi South 6.9 mph - N/A   Overcast
10:34 PM 32.0 °F 27.5 °F 21.2 °F 64% 30.30 in 10.0 mi SSW 4.6 mph - N/A   Overcast
10:55 PM 32.0 °F 27.5 °F 19.4 °F 60% 30.30 in 10.0 mi SSW 4.6 mph - N/A   Overcast
11:15 PM 30.2 °F - 21.2 °F 69% 30.30 in 10.0 mi Calm Calm - N/A   Overcast
11:35 PM 30.2 °F 26.7 °F 19.4 °F 64% 30.29 in 10.0 mi SSE 3.5 mph - N/A   Overcast
11:54 PM 30.2 °F 26.7 °F 19.4 °F 64% 30.29 in 10.0 mi SSE 3.5 mph - N/A   Overcast